| Date | Time | Temp. (oF) | Dew Point (oF) | Rel. Hum. (%) | Press. (in.) | Wind Dir. | Wind Speed (mph) | Hourly Rainfall (in.) |
|
|---|---|---|---|---|---|---|---|---|---|
| 1 | 08/11 | 00:00 | 70 | 64 | 82 | 29.82 | S | 12 | 0.00 |
| 2 | 08/10 | 23:00 | 70 | 64 | 83 | 29.84 | S | 10 | 0.00 |
| 3 | 08/10 | 22:00 | 70 | 64 | 84 | 29.86 | SSE | 4 | 0.00 |
| 4 | 08/10 | 21:00 | 70 | 64 | 84 | 29.85 | SSE | 6 | 0.00 |
| 5 | 08/10 | 20:00 | 70 | 64 | 84 | 29.86 | SSE | 9 | 0.00 |
| 6 | 08/10 | 19:00 | 70 | 64 | 82 | 29.87 | SSE | 5 | 0.00 |
| 7 | 08/10 | 18:00 | 69 | 63 | 82 | 29.88 | SSW | 5 | 0.00 |
| 8 | 08/10 | 17:00 | 70 | 63 | 81 | 29.89 | S | 5 | 0.00 |
| 9 | 08/10 | 16:00 | 71 | 65 | 83 | 29.91 | SSW | 4 | 0.00 |
| 10 | 08/10 | 15:00 | 70 | 63 | 81 | 29.94 | SSW | 7 | 0.00 |
| 11 | 08/10 | 14:00 | 71 | 64 | 81 | 29.95 | SSW | 4 | 0.00 |
| 12 | 08/10 | 13:00 | 69 | 63 | 83 | 29.95 | S | 6 | 0.00 |
| 13 | 08/10 | 12:00 | 70 | 64 | 82 | 29.96 | S | 4 | 0.00 |
| 14 | 08/10 | 11:00 | 70 | 63 | 81 | 29.96 | SSW | 1 | 0.00 |
| 15 | 08/10 | 10:00 | 70 | 62 | 78 | 29.96 | S | 5 | 0.00 |
| 16 | 08/10 | 09:00 | 70 | 62 | 77 | 29.95 | S | 5 | 0.00 |
| 17 | 08/10 | 08:00 | 69 | 61 | 77 | 29.95 | SSW | 4 | 0.00 |
| 18 | 08/10 | 07:00 | 67 | 59 | 77 | 29.94 | SSE | 5 | 0.00 |
| 19 | 08/10 | 06:00 | 67 | 59 | 76 | 29.94 | ESE | 0 | 0.00 |
| 20 | 08/10 | 05:00 | 68 | 59 | 75 | 29.93 | SE | 1 | 0.00 |
| 21 | 08/10 | 04:00 | 67 | 58 | 74 | 29.94 | E | 0 | 0.00 |
| 22 | 08/10 | 03:00 | 67 | 57 | 71 | 29.94 | S | 0 | 0.00 |
| 23 | 08/10 | 02:00 | 68 | 57 | 68 | 29.95 | S | 0 | 0.00 |
| 24 | 08/10 | 01:00 | 69 | 58 | 69 | 29.95 | S | 1 | 0.00 |